This is the latest recevied weather packets stored in our database for station/object 9W2CHF-3. If no packets are shown the sender has not sent any weather packets the latest 10 day(s).
| Time | Temp. | Humidity | Pressure | Rain* | Wind** | Luminosity | Snow |
|---|---|---|---|---|---|---|---|
| 1788138948 | 80° F | 100% | 760.4 mmHg | - | - | - | - |
| 1788137748 | 81° F | 100% | 760.6 mmHg | - | - | - | - |
| 1788136548 | 80° F | 100% | 760.5 mmHg | - | - | - | - |
| 1788135348 | 80° F | 100% | 760.8 mmHg | - | - | - | - |
| 1788134148 | 79° F | 100% | 761 mmHg | - | - | - | - |
| 1788132948 | 80° F | 100% | 761.1 mmHg | - | - | - | - |
| 1788131748 | 80° F | 100% | 761 mmHg | - | - | - | - |
| 1788130548 | 80° F | 100% | 760.5 mmHg | - | - | - | - |
| 1788129347 | 82° F | 100% | 760.3 mmHg | - | - | - | - |
| 1788128147 | 82° F | 100% | 760.1 mmHg | - | - | - | - |
| 1788126953 | 80° F | 100% | 760 mmHg | - | - | - | - |
| 1788125752 | 83° F | 100% | 759.8 mmHg | - | - | - | - |
| 1788124552 | 81° F | 100% | 759.6 mmHg | - | - | - | - |
| 1788123352 | 82° F | 100% | 759.5 mmHg | - | - | - | - |
| 1788122152 | 81° F | 100% | 759.7 mmHg | - | - | - | - |
| 1788120952 | 81° F | 100% | 759.7 mmHg | - | - | - | - |
| 1788119751 | 81° F | 100% | 759.8 mmHg | - | - | - | - |
| 1788118551 | 81° F | 100% | 759.9 mmHg | - | - | - | - |
| 1788117351 | 81° F | 100% | 760 mmHg | - | - | - | - |
| 1788116151 | 83° F | 100% | 759.8 mmHg | - | - | - | - |
| 1788114951 | 82° F | 100% | 759.7 mmHg | - | - | - | - |
| 1788113751 | 83° F | 100% | 759.7 mmHg | - | - | - | - |
| 1788112551 | 84° F | 100% | 759.7 mmHg | - | - | - | - |
| 1788111351 | 84° F | 100% | 759.8 mmHg | - | - | - | - |
| 1788110151 | 85° F | 99% | 759.9 mmHg | - | - | - | - |
* Rain since midnight (hover to see other rain measurements)
** Current wind speed in m/s (hover to see current wind gust speed)